KO4T-4 Weather Reports


Display with metric or nautical units.
time (UTC)temp
F
wind
direction
speed
MPH
gust
MPH
rain 1hr
in
rain 24hr
in
rain mn
in
humidity
%
barometer
mb
20240225200004 56 163 1.0 5.0 0.00 0.00 0.00 35 1015.5
20240225195503 56 91 1.0 4.0 0.00 0.00 0.00 36 1015.5
20240225195004 56 138 1.0 4.0 0.00 0.00 0.00 34 1015.6
20240225194503 56 184 1.0 4.0 0.00 0.00 0.00 34 1015.6
20240225194004 56 146 1.0 3.0 0.00 0.00 0.00 35 1015.6
20240225193503 56 153 1.0 5.0 0.00 0.00 0.00 36 1015.7
20240225193003 55 204 1.0 5.0 0.00 0.00 0.00 37 1015.9
20240225192503 55 243 1.0 5.0 0.00 0.00 0.00 37 1015.9
20240225192004 54 207 1.0 5.0 0.00 0.00 0.00 37 1016.1
20240225191504 54 254 2.0 5.0 0.00 0.00 0.00 37 1016.2
20240225191003 53 279 2.0 5.0 0.00 0.00 0.00 38 1016.2
20240225190503 53 284 1.0 5.0 0.00 0.00 0.00 37 1016.3
20240225190003 53 291 1.0 5.0 0.00 0.00 0.00 39 1016.4
20240225185504 52 320 1.0 5.0 0.00 0.00 0.00 38 1016.5
20240225185003 52 293 2.0 5.0 0.00 0.00 0.00 38 1016.6
20240225184503 52 272 1.0 6.0 0.00 0.00 0.00 39 1016.6
20240225184003 52 261 1.0 6.0 0.00 0.00 0.00 40 1016.8
20240225183504 52 277 2.0 5.0 0.00 0.00 0.00 40 1016.8
20240225183003 52 240 3.0 7.0 0.00 0.00 0.00 39 1017.0
20240225182504 52 214 3.0 7.0 0.00 0.00 0.00 39 1017.1
20240225182003 51 235 2.0 7.0 0.00 0.00 0.00 40 1017.1
20240225181504 51 269 1.0 7.0 0.00 0.00 0.00 40 1017.3
20240225181004 50 301 1.0 7.0 0.00 0.00 0.00 43 1017.4
20240225180503 50 329 2.0 5.0 0.00 0.00 0.00 43 1017.4
20240225180003 50 289 3.0 5.0 0.00 0.00 0.00 43 1017.5
20240225175503 50 324 3.0 7.0 0.00 0.00 0.00 43 1017.5
20240225175003 49 327 2.0 7.0 0.00 0.00 0.00 42 1017.6
20240225174504 49 293 1.0 7.0 0.00 0.00 0.00 43 1017.6
20240225174004 49 45 0.0 2.0 0.00 0.00 0.00 44 1017.8
20240225173504 48 359 0.0 2.0 0.00 0.00 0.00 46 1017.9
20240225173003 48 343 1.0 2.0 0.00 0.00 0.00 49 1018.0
20240225172504 48 277 1.0 3.0 0.00 0.00 0.00 48 1018.1
20240225172003 48 269 1.0 4.0 0.00 0.00 0.00 49 1018.2
20240225171504 47 287 1.0 4.0 0.00 0.00 0.00 48 1018.2
20240225171003 47 315 0.0 5.0 0.00 0.00 0.00 51 1018.3
20240225170504 46 323 1.0 5.0 0.00 0.00 0.00 50 1018.4
20240225170004 46 303 1.0 3.0 0.00 0.00 0.00 53 1018.5
20240225165503 46 296 1.0 5.0 0.00 0.00 0.00 51 1018.6
20240225165004 45 349 2.0 5.0 0.00 0.00 0.00 51 1018.6
20240225164503 45 14 1.0 5.0 0.00 0.00 0.00 53 1018.7
20240225164003 45 344 1.0 5.0 0.00 0.00 0.00 53 1018.7
20240225163503 44 339 2.0 5.0 0.00 0.00 0.00 55 1018.7
20240225163003 44 351 2.0 6.0 0.00 0.00 0.00 56 1018.7
20240225162504 43 351 2.0 6.0 0.00 0.00 0.00 56 1018.8
20240225162003 43 339 2.0 5.0 0.00 0.00 0.00 56 1018.8
20240225161504 43 276 2.0 6.0 0.00 0.00 0.00 55 1019.1
20240225161003 43 288 1.0 7.0 0.00 0.00 0.00 56 1019.0
20240225160503 42 311 1.0 7.0 0.00 0.00 0.00 57 1019.1
20240225160004 42 274 1.0 3.0 0.00 0.00 0.00 57 1019.1
20240225155503 42 301 1.0 4.0 0.00 0.00 0.00 58 1019.2
20240225155003 42 28 1.0 4.0 0.00 0.00 0.00 59 1019.3
20240225154504 41 331 1.0 4.0 0.00 0.00 0.00 58 1019.3
20240225154003 41 319 1.0 3.0 0.00 0.00 0.00 60 1019.3
20240225153503 41 307 1.0 4.0 0.00 0.00 0.00 60 1019.4
20240225153003 41 277 1.0 4.0 0.00 0.00 0.00 60 1019.4
20240225152503 40 269 0.0 4.0 0.00 0.00 0.00 60 1019.4
20240225152003 40 304 1.0 4.0 0.00 0.00 0.00 64 1019.5
20240225151503 40 352 1.0 2.0 0.00 0.00 0.00 63 1019.6
20240225151004 39 347 1.0 3.0 0.00 0.00 0.00 64 1019.5
20240225150503 39 293 0.0 3.0 0.00 0.00 0.00 64 1019.6
20240225150003 39 248 0.0 2.0 0.00 0.00 0.00 65 1019.6
20240225145504 38 284 0.0 2.0 0.00 0.00 0.00 67 1019.6
20240225145004 38 306 0.0 2.0 0.00 0.00 0.00 68 1019.7
20240225144503 37 302 0.0 1.0 0.00 0.00 0.00 69 1019.6
20240225144004 37 277 0.0 1.0 0.00 0.00 0.00 70 1019.7
20240225143503 37 278 0.0 1.0 0.00 0.00 0.00 73 1019.7
20240225143003 36 343 0.0 3.0 0.00 0.00 0.00 73 1019.6
20240225142504 36 347 0.0 3.0 0.00 0.00 0.00 74 1019.6
20240225142004 35 237 0.0 2.0 0.00 0.00 0.00 76 1019.8
20240225141503 34 241 0.0 2.0 0.00 0.00 0.00 74 1019.7
20240225141004 34 279 0.0 1.0 0.00 0.00 0.00 75 1019.7
20240225140503 34 275 0.0 1.0 0.00 0.00 0.00 76 1019.6
20240225140003 34 266 0.0 1.0 0.00 0.00 0.00 76 1019.5
20240225135504 35 0 0.0 0.0 0.00 0.00 0.00 77 1019.6
20240225135003 35 0 0.0 0.0 0.00 0.00 0.00 80 1019.6
20240225134503 33 0 0.0 0.0 0.00 0.00 0.00 82 1019.5
20240225134004 32 0 0.0 0.0 0.00 0.00 0.00 82 1019.4
20240225133503 31 332 0.0 1.0 0.00 0.00 0.00 82 1019.4
20240225133003 31 332 0.0 1.0 0.00 0.00 0.00 80 1019.4
20240225132503 32 0 0.0 0.0 0.00 0.00 0.00 81 1019.3
20240225132003 31 0 0.0 0.0 0.00 0.00 0.00 85 1019.2
20240225131504 30 0 0.0 0.0 0.00 0.00 0.00 87 1019.1
20240225131003 28 0 0.0 0.0 0.00 0.00 0.00 87 1019.1
20240225130504 27 0 0.0 0.0 0.00 0.00 0.00 86 1019.0
20240225130003 27 0 0.0 0.0 0.00 0.00 0.00 86 1019.0
20240225125503 27 0 0.0 0.0 0.00 0.00 0.00 86 1018.9
20240225125003 27 0 0.0 0.0 0.00 0.00 0.00 87 1018.8
20240225124503 26 0 0.0 0.0 0.00 0.00 0.00 88 1018.6
20240225124004 26 0 0.0 0.0 0.00 0.00 0.00 88 1018.6
20240225123503 25 0 0.0 0.0 0.00 0.00 0.00 89 1018.7
20240225123003 24 104 0.0 1.0 0.00 0.00 0.00 88 1018.6
20240225122504 24 104 0.0 1.0 0.00 0.00 0.00 88 1018.5
20240225122003 24 104 0.0 1.0 0.00 0.00 0.00 87 1018.5
20240225121503 24 104 0.0 1.0 0.00 0.00 0.00 88 1018.5
20240225121003 24 0 0.0 0.0 0.00 0.00 0.00 88 1018.4
20240225120503 24 0 0.0 0.0 0.00 0.00 0.00 88 1018.5
20240225120004 24 0 0.0 0.0 0.00 0.00 0.00 88 1018.3
20240225115503 24 0 0.0 0.0 0.00 0.00 0.00 88 1018.3
20240225115004 24 0 0.0 0.0 0.00 0.00 0.00 88 1018.3
20240225114503 24 235 0.0 1.0 0.00 0.00 0.00 88 1018.2
20240225114003 24 235 0.0 1.0 0.00 0.00 0.00 87 1018.2
20240225113503 24 0 0.0 0.0 0.00 0.00 0.00 88 1018.0
20240225113003 24 0 0.0 0.0 0.00 0.00 0.00 88 1018.0
20240225112504 24 0 0.0 0.0 0.00 0.00 0.00 88 1017.9
20240225112003 24 0 0.0 0.0 0.00 0.00 0.00 87 1017.8
20240225111503 24 0 0.0 0.0 0.00 0.00 0.00 86 1017.8
20240225111003 24 0 0.0 0.0 0.00 0.00 0.00 86 1017.7
20240225110503 25 0 0.0 0.0 0.00 0.00 0.00 86 1017.5
20240225110004 25 0 0.0 0.0 0.00 0.00 0.00 87 1017.5
20240225105503 25 0 0.0 0.0 0.00 0.00 0.00 86 1017.4
20240225105003 25 0 0.0 0.0 0.00 0.00 0.00 86 1017.3
20240225104504 25 0 0.0 0.0 0.00 0.00 0.00 85 1017.4
20240225104003 26 0 0.0 0.0 0.00 0.00 0.00 84 1017.2
20240225103503 26 0 0.0 0.0 0.00 0.00 0.00 84 1017.1
20240225103003 26 88 0.0 1.0 0.00 0.00 0.00 85 1016.9
20240225102503 26 88 0.0 1.0 0.00 0.00 0.00 84 1016.8
20240225102004 26 0 0.0 0.0 0.00 0.00 0.00 85 1016.7
20240225101503 26 0 0.0 0.0 0.00 0.00 0.00 84 1016.8
20240225101004 27 0 0.0 0.0 0.00 0.00 0.00 84 1016.8
20240225100503 27 85 0.0 1.0 0.00 0.00 0.00 84 1016.7
20240225100003 27 93 0.0 1.0 0.00 0.00 0.00 84 1016.8
20240225095504 26 97 0.0 1.0 0.00 0.00 0.00 85 1016.7
20240225095003 26 104 0.0 1.0 0.00 0.00 0.00 84 1016.8
20240225094503 26 103 0.0 1.0 0.00 0.00 0.00 84 1016.8
20240225094003 27 104 0.0 1.0 0.00 0.00 0.00 83 1016.7
20240225093503 27 0 0.0 0.0 0.00 0.00 0.00 84 1016.8
20240225093004 27 0 0.0 0.0 0.00 0.00 0.00 84 1016.8
20240225092503 27 0 0.0 0.0 0.00 0.00 0.00 84 1016.8
20240225092003 27 0 0.0 0.0 0.00 0.00 0.00 84 1016.7
20240225091504 27 0 0.0 0.0 0.00 0.00 0.00 84 1016.4
20240225091003 27 0 0.0 0.0 0.00 0.00 0.00 84 1016.3
20240225090503 27 90 0.0 1.0 0.00 0.00 0.00 84 1016.4
20240225090003 27 90 0.0 1.0 0.00 0.00 0.00 83 1016.3
20240225085504 27 0 0.0 0.0 0.00 0.00 0.00 84 1016.2
20240225085003 27 0 0.0 0.0 0.00 0.00 0.00 83 1016.4
20240225084503 27 0 0.0 0.0 0.00 0.00 0.00 83 1016.4
20240225084004 27 0 0.0 0.0 0.00 0.00 0.00 82 1016.4
20240225083503 28 0 0.0 0.0 0.00 0.00 0.00 82 1016.3
20240225083003 28 0 0.0 0.0 0.00 0.00 0.00 82 1016.2
20240225082504 28 0 0.0 0.0 0.00 0.00 0.00 82 1016.2
20240225082003 28 0 0.0 0.0 0.00 0.00 0.00 82 1016.2
20240225081503 28 97 0.0 1.0 0.00 0.00 0.00 82 1016.1
20240225081004 28 92 0.0 1.0 0.00 0.00 0.00 82 1016.1
20240225080503 28 91 0.0 1.0 0.00 0.00 0.00 81 1016.0
20240225080003 28 91 0.0 1.0 0.00 0.00 0.00 82 1016.1
20240225075503 28 0 0.0 0.0 0.00 0.00 0.00 82 1016.0
20240225075003 28 0 0.0 0.0 0.00 0.00 0.00 82 1015.9
20240225074503 28 0 0.0 0.0 0.00 0.00 0.00 82 1015.9
20240225074003 28 79 1.0 1.0 0.00 0.00 0.00 83 1015.8
20240225073503 27 82 1.0 2.0 0.00 0.00 0.00 82 1015.5
20240225073004 27 83 0.0 2.0 0.00 0.00 0.00 81 1015.6
20240225072503 28 96 0.0 1.0 0.00 0.00 0.00 80 1015.8
20240225072003 29 0 0.0 0.0 0.00 0.00 0.00 78 1015.5
20240225071503 29 0 0.0 0.0 0.00 0.00 0.00 78 1015.6
20240225071003 30 0 0.0 0.0 0.00 0.00 0.00 78 1015.6
20240225070504 29 85 0.0 1.0 0.00 0.00 0.00 79 1015.5
20240225070003 29 84 1.0 1.0 0.00 0.00 0.00 80 1015.7
20240225065503 29 105 1.0 3.0 0.00 0.00 0.00 79 1015.7
20240225065003 29 99 0.0 3.0 0.00 0.00 0.00 78 1015.7
20240225064504 30 89 0.0 2.0 0.00 0.00 0.00 77 1015.5
20240225064003 30 0 0.0 0.0 0.00 0.00 0.00 77 1015.6
20240225063503 30 0 0.0 0.0 0.00 0.00 0.00 75 1015.6
20240225063003 30 0 0.0 0.0 0.00 0.00 0.00 76 1015.6
20240225062503 31 0 0.0 0.0 0.00 0.00 0.00 75 1015.7
20240225062003 31 0 0.0 0.0 0.00 0.00 0.00 75 1015.8
20240225061503 31 0 0.0 0.0 0.00 0.00 0.00 75 1015.8
20240225061004 31 0 0.0 0.0 0.00 0.00 0.00 75 1015.8
20240225060503 31 0 0.0 0.0 0.00 0.00 0.00 76 1016.0
20240225060003 30 0 0.0 0.0 0.00 0.00 0.00 75 1015.9
20240225055504 31 241 0.0 1.0 0.00 0.00 0.00 74 1016.0
20240225055003 31 241 0.0 1.0 0.00 0.00 0.00 73 1015.9
20240225054504 31 0 0.0 0.0 0.00 0.00 0.00 72 1015.8
20240225054003 32 0 0.0 0.0 0.00 0.00 0.00 71 1015.7
20240225053503 32 0 0.0 0.0 0.00 0.00 0.00 70 1015.6
20240225053004 33 0 0.0 0.0 0.00 0.00 0.00 70 1015.6
20240225052503 33 175 0.0 1.0 0.00 0.00 0.00 70 1015.6
20240225052004 33 175 0.0 1.0 0.00 0.00 0.00 69 1015.4
20240225051503 33 0 0.0 0.0 0.00 0.00 0.00 69 1015.5
20240225051003 33 0 0.0 0.0 0.00 0.00 0.00 69 1015.4
20240225050503 33 0 0.0 0.0 0.00 0.00 0.00 68 1015.6
20240225050005 34 0 0.0 0.0 0.00 0.00 0.00 68 1015.8
20240225045503 34 0 0.0 0.0 0.00 0.00 0.00 67 1015.7
20240225045004 34 0 0.0 0.0 0.00 0.00 0.00 67 1015.8
20240225044503 34 207 1.0 1.0 0.00 0.00 0.00 67 1016.0
20240225044004 35 292 1.0 6.0 0.00 0.00 0.00 66 1016.1
20240225043503 35 319 1.0 6.0 0.00 0.00 0.00 65 1015.8
20240225043003 35 322 0.0 5.0 0.00 0.00 0.00 66 1015.7
20240225042504 35 286 0.0 1.0 0.00 0.00 0.00 66 1015.8
20240225042004 35 289 0.0 2.0 0.00 0.00 0.00 66 1015.9
20240225041503 35 303 0.0 2.0 0.00 0.00 0.00 66 1015.8
20240225041003 35 317 0.0 1.0 0.00 0.00 0.00 66 1015.8
20240225040503 35 243 0.0 1.0 0.00 0.00 0.00 65 1016.0
20240225040003 36 257 0.0 1.0 0.00 0.00 0.00 64 1016.3
20240225035504 36 315 1.0 1.0 0.00 0.00 0.00 64 1016.0
20240225035003 36 291 1.0 3.0 0.00 0.00 0.00 63 1016.0
20240225034504 37 295 1.0 3.0 0.00 0.00 0.00 63 1016.1
20240225034003 37 320 2.0 5.0 0.00 0.00 0.00 62 1016.1
20240225033504 37 315 3.0 5.0 0.00 0.00 0.00 61 1016.0
20240225033003 38 324 3.0 9.0 0.00 0.00 0.00 61 1015.9
20240225032504 38 334 3.0 9.0 0.00 0.00 0.00 61 1015.7
20240225032003 38 334 3.0 8.0 0.00 0.00 0.00 60 1015.5
20240225031504 38 327 4.0 8.0 0.00 0.00 0.00 60 1015.7
20240225031003 38 325 5.0 12.0 0.00 0.00 0.00 60 1015.8
20240225030504 38 325 5.0 12.0 0.00 0.00 0.00 59 1015.9
20240225030003 38 336 5.0 16.0 0.00 0.00 0.00 60 1015.7
20240225025503 38 345 5.0 16.0 0.00 0.00 0.00 60 1015.5
20240225025003 38 335 5.0 14.0 0.00 0.00 0.00 60 1015.4
20240225024503 39 338 4.0 14.0 0.00 0.00 0.00 60 1015.3
20240225024003 39 342 4.0 12.0 0.00 0.00 0.00 60 1015.3
20240225023504 39 335 3.0 10.0 0.00 0.00 0.00 60 1015.1
20240225023004 39 332 3.0 9.0 0.00 0.00 0.00 61 1015.1
20240225022503 39 331 3.0 8.0 0.00 0.00 0.00 61 1014.9
20240225022004 39 334 4.0 9.0 0.00 0.00 0.00 60 1014.8
20240225021504 39 327 5.0 10.0 0.00 0.00 0.00 60 1014.5
20240225021004 39 323 6.0 12.0 0.00 0.00 0.00 60 1014.5
20240225020504 39 319 5.0 13.0 0.00 0.00 0.00 60 1014.4
20240225020004 39 321 5.0 13.0 0.00 0.00 0.00 60 1014.5
20240225015504 40 331 5.0 12.0 0.00 0.00 0.00 59 1014.5
20240225015003 40 334 6.0 11.0 0.00 0.00 0.00 59 1014.5
20240225014504 40 332 7.0 16.0 0.00 0.00 0.00 59 1014.3
20240225014004 40 327 7.0 16.0 0.00 0.00 0.00 59 1014.1
20240225013503 40 338 6.0 16.0 0.00 0.00 0.00 59 1013.9
20240225013003 40 347 6.0 16.0 0.00 0.00 0.00 59 1013.8
20240225012504 40 345 7.0 16.0 0.00 0.00 0.00 60 1013.7
20240225012004 41 346 6.0 16.0 0.00 0.00 0.00 59 1013.7
20240225011503 41 343 5.0 16.0 0.00 0.00 0.00 60 1013.8
20240225011003 41 338 4.0 13.0 0.00 0.00 0.00 61 1013.6
20240225010504 41 331 2.0 9.0 0.00 0.00 0.00 61 1013.5
20240225010003 41 329 1.0 8.0 0.00 0.00 0.00 62 1013.5
20240225005504 41 350 1.0 4.0 0.00 0.00 0.00 63 1013.4
20240225005003 41 9 0.0 2.0 0.00 0.00 0.00 62 1013.2
20240225004504 41 355 0.0 3.0 0.00 0.00 0.00 62 1013.1
20240225004003 41 293 1.0 3.0 0.00 0.00 0.00 62 1013.0
20240225003504 41 299 1.0 3.0 0.00 0.00 0.00 62 1012.9
20240225003003 41 316 1.0 3.0 0.00 0.00 0.00 61 1012.7
20240225002504 41 324 2.0 5.0 0.00 0.00 0.00 61 1012.6
20240225002003 42 324 2.0 6.0 0.00 0.00 0.00 61 1012.5
20240225001504 42 319 2.0 7.0 0.00 0.00 0.00 61 1012.3
20240225001003 42 320 2.0 7.0 0.00 0.00 0.00 61 1012.2
20240225000503 42 321 2.0 7.0 0.00 0.00 0.00 61 1012.3
20240225000003 42 315 1.0 4.0 0.00 0.00 0.00 61 1012.3
20240224235504 42 305 1.0 4.0 0.00 0.00 0.00 60 1012.2
20240224235004 43 304 1.0 5.0 0.00 0.00 0.00 58 1012.2
20240224234503 43 314 2.0 5.0 0.00 0.00 0.00 58 1012.2
20240224234003 43 322 2.0 6.0 0.00 0.00 0.00 57 1012.2
20240224233503 44 315 3.0 7.0 0.00 0.00 0.00 57 1012.0
20240224233003 44 313 4.0 7.0 0.00 0.00 0.00 56 1012.0
20240224232504 44 299 5.0 12.0 0.00 0.00 0.00 56 1011.6
20240224232003 44 295 6.0 15.0 0.00 0.00 0.00 56 1011.3
20240224231503 44 301 7.0 16.0 0.00 0.00 0.00 56 1011.2
20240224231003 44 296 7.0 17.0 0.00 0.00 0.00 56 1011.0
20240224230503 45 295 8.0 17.0 0.00 0.00 0.00 54 1010.8
20240224230003 45 297 7.0 18.0 0.00 0.00 0.00 54 1010.9
20240224225503 45 294 6.0 18.0 0.00 0.00 0.00 53 1010.9
20240224225004 46 292 6.0 12.0 0.00 0.00 0.00 54 1010.8
20240224224503 46 292 6.0 14.0 0.00 0.00 0.00 53 1010.7
20240224224004 46 295 7.0 14.0 0.00 0.00 0.00 54 1010.6
20240224223503 46 300 8.0 18.0 0.00 0.00 0.00 55 1010.4
20240224223004 47 315 8.0 25.0 0.00 0.00 0.00 54 1010.3
20240224222503 47 321 8.0 25.0 0.00 0.00 0.00 55 1010.1
20240224222003 48 322 7.0 16.0 0.00 0.00 0.00 58 1009.9
20240224221504 48 321 8.0 21.0 0.00 0.00 0.00 56 1009.9
20240224221003 48 314 11.0 21.0 0.00 0.00 0.00 55 1009.8
20240224220503 48 317 11.0 27.0 0.00 0.00 0.00 55 1009.4
20240224220004 48 314 11.0 27.0 0.00 0.00 0.00 52 1009.4
20240224215503 49 309 9.0 26.0 0.00 0.00 0.00 53 1009.3
20240224215003 49 307 8.0 17.0 0.00 0.00 0.00 52 1009.2
20240224214503 49 303 7.0 16.0 0.00 0.00 0.00 53 1009.0
20240224214003 50 304 7.0 16.0 0.00 0.00 0.00 54 1009.0
20240224213504 50 308 8.0 15.0 0.00 0.00 0.00 55 1008.9
20240224213003 49 298 9.0 16.0 0.00 0.00 0.00 57 1008.7
20240224212503 50 291 9.0 16.0 0.00 0.00 0.00 55 1008.6
20240224212004 50 304 9.0 19.0 0.00 0.00 0.00 55 1008.3
20240224211503 50 310 9.0 19.0 0.00 0.00 0.00 54 1008.3
20240224211004 50 300 8.0 19.0 0.00 0.00 0.00 53 1008.1
20240224210503 51 300 8.0 19.0 0.00 0.00 0.00 55 1008.0
20240224210003 50 301 10.0 19.0 0.00 0.00 0.00 56 1007.9
20240224205504 49 290 11.0 20.0 0.00 0.00 0.00 57 1007.9
20240224205003 50 295 10.0 20.0 0.00 0.00 0.00 55 1007.8
20240224204503 51 310 9.0 18.0 0.00 0.00 0.00 54 1007.7
20240224204004 51 314 9.0 19.0 0.00 0.00 0.00 53 1007.5
20240224203503 51 314 11.0 23.0 0.00 0.00 0.00 53 1007.4
20240224203003 51 320 12.0 26.0 0.00 0.00 0.00 54 1007.3
20240224202504 51 313 12.0 26.0 0.00 0.00 0.00 53 1007.2
20240224202003 52 306 10.0 26.0 0.00 0.00 0.00 51 1007.1
20240224201503 52 313 9.0 25.0 0.00 0.00 0.00 50 1006.9
20240224201004 52 315 8.0 20.0 0.00 0.00 0.00 50 1007.1
20240224200503 52 316 7.0 15.0 0.00 0.00 0.00 54 1006.9